Tracking 26321 objects as of 27-Nov-2022
HD Live streaming from Space Station
objects crossing your sky now

STARLINK-4581

Track STARLINK-4581 now!
10-day predictions
STARLINK-4581 is classified as:


NORAD ID: 53576
Int'l Code: 2022-101BB
Perigee: 545.5 km
Apogee: 548.2 km
Inclination: 53.2 °
Period: 95.4 minutes
Semi major axis: 6917 km
RCS: Unknown
Launch date: August 19, 2022
Source: United States (US)
Launch site: AIR FORCE EASTERN TEST RANGE (AFETR)
aabbcc
Your satellite tracking list
Your tracking list is empty




NASA's NSSDC Master Catalog

Two Line Element Set (TLE):
1 53576U 22101BB  22330.91667824 -.00035910  00000-0 -22490-2 0  9994
2 53576  53.2190  35.2969 0001925  38.7223  39.7175 15.08846981  1300
Source of the keplerian elements: AFSPC